Content
SEND FEEDBACK

Daily
Averages
Monthly
Summary
Cuba

GUANABACOA, CUBA


Home > Caribbean > Cuba
Elevation: 164 feet     Latitude: 23 10N     Longitude: 082 21W

WEATHER
 
SELECT A DAY
Number of Records: 139,218;   Date Range: 6/30/96 - 8/31/14
 
SHARE

PRINT THIS DATA

[ ← Previous Day ]
WEATHER ALMANAC - JUNE 7, 2014
[ Next Day → ]
[ °C ]   °F
Weather ElementAverageHighLow
Temperature78.1 °F89.6 °F (1:55 pm)69.8 °F (3:55 am)
Dewpoint69.8 °F73.4 °F (3:08 pm)66.2 °F (5:55 am)
Humidity76.6 %94 % (1:55 am)52 % (1:55 pm)
Barometer29.99 in30.04 in (8:55 am)29.95 in (4:55 pm)
Wind Speed6.8 mph18.4 mph (3:08 pm)
Weather ElementAverage
Visibility5.3 mi
Wind DirectionESE (102.8 °)

Weather ElementTotal
Precipitation---
Cooling Degree Days14.7 (Base 65)
Growing Degree Days29.7 (Base 50)
Averaged from 29 records on June 7, 2014
WEATHER CONDITIONS BREAKOUT
WIND DIRECTION BREAKOUT
WEATHER BY HOUR - JUNE 7, 2014
[ °C ]   °F
Local TimeTemperatureDewpointHumidityBarometerVisibilityWind DirectionWind SpeedGust SpeedPrecipitationEventsConditions
1:55 AM71.6 °F69.8 °F94 %30.01 in5.6 miNE (50°)3.5 mph
2:55 AM71.6 °F68.0 °F88 %29.98 in5.6 miVariable2.3 mph
3:55 AM69.8 °F68.0 °F94 %29.98 in5.6 miNE (40°)5.8 mph
4:55 AM71.6 °F68.0 °F88 %29.98 in5.6 miEast (90°)2.3 mph
5:00 AM71.0 °F68.0 °F88 %29.99 in6.0 miENE (70°)4.5 mphHaze
5:55 AM69.8 °F66.2 °F88 %29.98 in5.6 miENE (60°)4.6 mph
6:55 AM69.8 °F66.2 °F88 %30.01 in4.3 miENE (60°)3.5 mph
7:55 AM71.6 °F68.0 °F88 %30.01 in5.6 miENE (60°)4.6 mphPartly Cloudy
8:55 AM77.0 °F69.8 °F78 %30.04 in5.6 miENE (60°)5.8 mphPartly Cloudy
9:55 AM80.6 °F69.8 °F70 %30.01 in5.6 miEast (80°)6.9 mphPartly Cloudy
10:55 AM84.2 °F68.0 °F58 %30.01 in5.6 miESE (110°)6.9 mphPartly Cloudy
11:55 AM86.0 °F69.8 °F58 %30.01 in5.6 miSE (140°)6.9 mphPartly Cloudy
12:55 PM87.8 °F69.8 °F55 %30.01 in5.6 miSSE (150°)8.1 mphScattered Clouds
1:55 PM89.6 °F69.8 °F52 %30.01 in5.6 miSSW (210°)5.8 mphScattered Clouds
2:24 PM89.6 °F69.8 °F52 %30.01 in5.6 miNNW (340°)11.5 mphMostly Cloudy
2:55 PM86.0 °F71.6 °F62 %29.98 in5.6 miNorth (350°)13.8 mphMostly Cloudy
3:08 PM78.8 °F73.4 °F83 %30.01 in4.3 miSSW (200°)18.4 mphThunderstormThunderstorm
3:20 PM78.8 °F71.6 °F78 %29.98 in2.5 miSSE (160°)13.8 mphRainRain
3:31 PM75.2 °F69.8 °F83 %30.01 in2.5 miVariable5.8 mphRain-ThunderstormThunderstorms and Rain
3:55 PM73.4 °F68.0 °F83 %29.98 in3.7 miSSW (210°)5.8 mphRainLight Rain
4:55 PM78.8 °F69.8 °F74 %29.95 in5.6 miNE (40°)9.2 mphMostly Cloudy
5:55 PM84.2 °F68.0 °F58 %29.95 in5.6 miNE (50°)8.1 mphMostly Cloudy
6:55 PM82.4 °F69.8 °F66 %29.95 in5.6 miNE (40°)11.5 mphMostly Cloudy
7:55 PM80.6 °F73.4 °F79 %29.98 in5.6 miNE (50°)8.1 mphMostly Cloudy
8:55 PM78.8 °F71.6 °F78 %29.98 in5.6 miESE (120°)3.5 mphMostly Cloudy
9:55 PM77.0 °F71.6 °F83 %30.01 in5.6 miEast (80°)6.9 mphScattered Clouds
10:55 PM77.0 °F71.6 °F83 %30.01 in5.6 miEast (90°)4.6 mphScattered Clouds
11:00 PM76.0 °F72.0 °F82 %30.01 in6.0 miENE (70°)4.5 mphHaze
11:55 PM75.2 °F71.6 °F89 %30.01 in5.6 miVariable1.2 mphPartly Cloudy
Hourly data recorded from MUHA, located miles away from Guanabacoa, Cuba







STORIES FROM OUR PARTNERS